Location: Saddleback Butte
(34.6776°N, 117.8050°W)
Time: 10:53:57
(UTC-07:00)

Iridium 35 - Visible Passes

Search period start: 25 July 2016 00:00
Search period end: 04 August 2016 00:00
Orbit: 776 x 779 km, 86.4° (Epoch: 24 July)

Date Brightness Start Highest point End Pass type
(mag) Time Alt. Az. Time Alt. Az. Time Alt. Az.
25 Jul 7.4 00:05:49 10° NW 00:08:22 14° W 00:08:26 14° W visible
25 Jul 6.0 21:50:07 10° NNE 21:54:35 28° E 21:54:39 28° E visible
25 Jul 6.6 23:30:51 10° NNW 23:35:07 27° W 23:35:07 27° W visible
26 Jul 6.8 21:17:55 10° NE 21:20:49 15° ENE 21:21:21 15° E visible
26 Jul 5.6 22:56:46 10° NNW 23:01:48 51° W 23:01:49 51° W visible
27 Jul 4.8 22:23:07 10° N 22:28:21 82° E 22:28:32 80° ESE visible
28 Jul 5.4 21:49:51 10° NNE 21:54:47 42° E 21:55:15 41° E visible
28 Jul 7.1 23:31:39 10° NW 23:35:05 18° W 23:35:44 18° W visible
29 Jul 6.3 21:17:05 10° NNE 21:21:05 22° E 21:21:58 21° E visible
29 Jul 6.2 22:57:09 10° NNW 23:01:49 34° W 23:02:28 33° W visible
30 Jul 7.0 20:45:45 10° ENE 20:47:16 11° ENE 20:48:43 10° E visible
30 Jul 5.2 22:23:15 10° N 22:28:26 67° W 22:29:12 58° SW visible
31 Jul 5.0 21:49:45 10° N 21:54:56 63° E 21:55:58 51° SE visible
31 Jul 7.6 23:33:08 10° WNW 23:34:59 12° WNW 23:36:27 11° W visible
01 Aug 5.8 21:16:39 10° NNE 21:21:19 32° E 21:22:44 28° ESE visible
01 Aug 6.9 22:57:45 10° NNW 23:01:47 23° W 23:03:14 21° WSW visible
02 Aug 6.6 20:44:12 10° NE 20:47:34 17° ENE 20:49:32 14° ESE visible
02 Aug 5.9 22:23:32 10° NNW 22:28:29 44° W 22:30:01 35° SW visible
03 Aug 5.0 21:49:48 10° N 21:55:02 87° W 21:56:50 43° S visible
